• En España
  • Lista de países
  • Para 7 días
  • Temperatura del agua
  • Mapa Satelital
  • El tiempo en el mapa
  • Informadores
  • user-avatar
    Iniciar sesión

    Tiempo cada hora Shadeyka

    Hoy, 14 Agosto, Martes

    Tiempo Temperatura Precipitaciones Viento Presión Humedad
    00:00 +18°C° 0,1 mm 2 mps 744 mmHg 93%
    01:00 +18°C° 0,1 mm 2 mps 744 mmHg 95%
    02:00 +17°C° 0,1 mm 2 mps 744 mmHg 95%
    03:00 +17°C° 0,1 mm 2 mps 744 mmHg 96%
    04:00 +18°C° 0 mm 1 mps 744 mmHg 96%
    05:00 +19°C° 0,2 mm 1 mps 744 mmHg 95%
    06:00 +19°C° 0,2 mm 1 mps 744 mmHg 93%
    07:00 +20°C° 0,2 mm 1 mps 744 mmHg 91%
    08:00 +21°C° 0,4 mm 1 mps 744 mmHg 84%
    09:00 +23°C° 0,4 mm 2 mps 744 mmHg 76%
    10:00 +24°C° 0 mm 2 mps 744 mmHg 72%
    11:00 +24°C° 0,7 mm 2 mps 744 mmHg 70%
    12:00 +24°C° 0,7 mm 3 mps 744 mmHg 69%
    13:00 +24°C° 0,7 mm 3 mps 744 mmHg 67%
    14:00 +22°C° 0,3 mm 3 mps 744 mmHg 68%
    15:00 +22°C° 0,3 mm 3 mps 744 mmHg 69%
    16:00 +21°C° 0 mm 3 mps 745 mmHg 68%
    17:00 +19°C° 0,1 mm 2 mps 745 mmHg 74%
    18:00 +18°C° 0,1 mm 2 mps 745 mmHg 79%
    19:00 +17°C° 0,1 mm 2 mps 745 mmHg 84%
    20:00 +16°C° 0 mm 2 mps 745 mmHg 86%
    21:00 +15°C° 0 mm 2 mps 746 mmHg 87%
    22:00 +15°C° 0 mm 2 mps 746 mmHg 88%
    23:00 +14°C° 0 mm 2 mps 746 mmHg 90%

    Mañana, 15 Agosto, Miércoles

    Tiempo Temperatura Precipitaciones Viento Presión Humedad
    00:00 +14°C° 0 mm 2 mps 746 mmHg 92%
    01:00 +13°C° 0 mm 2 mps 746 mmHg 94%
    02:00 +13°C° 0 mm 2 mps 746 mmHg 95%
    03:00 +13°C° 0 mm 2 mps 747 mmHg 95%
    04:00 +12°C° 0 mm 2 mps 747 mmHg 96%
    05:00 +13°C° 0 mm 2 mps 747 mmHg 93%
    06:00 +14°C° 0 mm 2 mps 747 mmHg 90%
    07:00 +13°C° 0 mm 3 mps 747 mmHg 87%
    08:00 +16°C° 0 mm 3 mps 748 mmHg 79%
    09:00 +18°C° 0 mm 3 mps 748 mmHg 71%
    10:00 +19°C° 0 mm 4 mps 748 mmHg 64%
    11:00 +20°C° 0 mm 4 mps 748 mmHg 60%
    12:00 +21°C° 0 mm 4 mps 748 mmHg 57%
    13:00 +22°C° 0 mm 4 mps 748 mmHg 54%
    14:00 +22°C° 0 mm 4 mps 748 mmHg 54%
    15:00 +22°C° 0 mm 4 mps 748 mmHg 54%
    16:00 +22°C° 0 mm 4 mps 748 mmHg 54%
    17:00 +21°C° 0 mm 3 mps 748 mmHg 61%
    18:00 +20°C° 0 mm 3 mps 749 mmHg 67%
    19:00 +19°C° 0 mm 2 mps 749 mmHg 73%
    20:00 +17°C° 0 mm 2 mps 749 mmHg 76%
    21:00 +16°C° 0 mm 2 mps 749 mmHg 80%
    22:00 +15°C° 0 mm 2 mps 749 mmHg 83%
    23:00 +14°C° 0 mm 2 mps 749 mmHg 85%

    Pasado mañana, 16 Agosto, Jueves

    Tiempo Temperatura Precipitaciones Viento Presión Humedad
    00:00 +14°C° 0 mm 2 mps 749 mmHg 88%
    01:00 +13°C° 0 mm 2 mps 749 mmHg 90%
    02:00 +13°C° 0 mm 2 mps 749 mmHg 91%
    03:00 +13°C° 0 mm 2 mps 749 mmHg 92%
    04:00 +12°C° 0 mm 2 mps 749 mmHg 93%
    05:00 +13°C° 0 mm 2 mps 749 mmHg 89%
    06:00 +14°C° 0 mm 3 mps 749 mmHg 85%
    07:00 +16°C° 0 mm 3 mps 748 mmHg 81%
    08:00 +15°C° 0,3 mm 4 mps 748 mmHg 79%
    09:00 +16°C° 0,3 mm 5 mps 747 mmHg 78%
    10:00 +17°C° 0,3 mm 6 mps 747 mmHg 77%
    11:00 +17°C° 0,7 mm 6 mps 746 mmHg 82%
    12:00 +17°C° 0,7 mm 6 mps 746 mmHg 87%
    13:00 +16°C° 0,7 mm 6 mps 746 mmHg 91%
    14:00 +17°C° 0,4 mm 5 mps 746 mmHg 92%
    15:00 +17°C° 0,4 mm 5 mps 746 mmHg 93%
    16:00 +17°C° 0,4 mm 5 mps 746 mmHg 94%
    17:00 +18°C° 0,2 mm 4 mps 746 mmHg 94%
    18:00 +19°C° 0,2 mm 4 mps 746 mmHg 94%
    19:00 +19°C° 0,2 mm 3 mps 746 mmHg 94%
    20:00 +18°C° 0,1 mm 3 mps 746 mmHg 95%
    21:00 +17°C° 0,1 mm 3 mps 746 mmHg 96%
    22:00 +16°C° 0,1 mm 3 mps 746 mmHg 97%
    23:00 +14°C° 0 mm 3 mps 746 mmHg 97%

    17 Agosto, Viernes

    Tiempo Temperatura Precipitaciones Viento Presión Humedad
    00:00 +14°C° 0 mm 2 mps 747 mmHg 98%
    01:00 +13°C° 0 mm 2 mps 747 mmHg 98%
    02:00 +12°C° 0 mm 2 mps 747 mmHg 98%
    03:00 +12°C° 0 mm 2 mps 747 mmHg 98%
    04:00 +12°C° 0 mm 2 mps 748 mmHg 97%
    05:00 +12°C° 0 mm 2 mps 748 mmHg 97%
    06:00 +12°C° 0 mm 2 mps 748 mmHg 96%
    07:00 +13°C° 0 mm 2 mps 748 mmHg 95%
    08:00 +14°C° 0 mm 2 mps 749 mmHg 88%
    09:00 +16°C° 0 mm 3 mps 749 mmHg 82%
    10:00 +17°C° 0 mm 3 mps 749 mmHg 76%
    11:00 +19°C° 0 mm 3 mps 749 mmHg 69%
    12:00 +20°C° 0 mm 3 mps 749 mmHg 63%
    13:00 +21°C° 0 mm 3 mps 749 mmHg 56%
    14:00 +21°C° 0,1 mm 3 mps 749 mmHg 57%
    15:00 +21°C° 0,1 mm 3 mps 749 mmHg 57%
    16:00 +21°C° 0,1 mm 3 mps 749 mmHg 58%
    17:00 +20°C° 0,2 mm 3 mps 749 mmHg 65%
    18:00 +18°C° 0,2 mm 2 mps 750 mmHg 71%
    19:00 +17°C° 0,2 mm 2 mps 750 mmHg 78%
    20:00 +16°C° 0 mm 2 mps 750 mmHg 79%
    21:00 +14°C° 0 mm 2 mps 750 mmHg 81%
    22:00 +13°C° 0 mm 2 mps 751 mmHg 82%
    23:00 +12°C° 0 mm 2 mps 751 mmHg 83%

    18 Agosto, Sábado

    Tiempo Temperatura Precipitaciones Viento Presión Humedad
    00:00 +12°C° 0 mm 2 mps 751 mmHg 84%
    01:00 +10°C° 0 mm 2 mps 751 mmHg 85%
    02:00 +9°C° 0 mm 2 mps 751 mmHg 86%
    03:00 +9°C° 0 mm 2 mps 752 mmHg 87%
    04:00 +8°C° 0 mm 2 mps 752 mmHg 87%
    05:00 +9°C° 0 mm 2 mps 752 mmHg 85%
    06:00 +10°C° 0 mm 3 mps 753 mmHg 82%
    07:00 +10°C° 0 mm 3 mps 753 mmHg 79%
    08:00 +12°C° 0 mm 4 mps 753 mmHg 73%
    09:00 +13°C° 0 mm 4 mps 753 mmHg 66%
    10:00 +15°C° 0 mm 4 mps 753 mmHg 60%
    11:00 +15°C° 0 mm 4 mps 753 mmHg 58%
    12:00 +17°C° 0 mm 4 mps 753 mmHg 55%
    13:00 +18°C° 0 mm 4 mps 753 mmHg 53%
    14:00 +18°C° 0 mm 4 mps 753 mmHg 54%
    15:00 +18°C° 0 mm 4 mps 753 mmHg 54%
    16:00 +18°C° 0 mm 4 mps 753 mmHg 54%
    17:00 +17°C° 0 mm 4 mps 753 mmHg 60%
    18:00 +14°C° 0 mm 3 mps 753 mmHg 65%
    19:00 +13°C° 0 mm 3 mps 753 mmHg 70%
    20:00 +12°C° 0 mm 3 mps 754 mmHg 74%
    21:00 +12°C° 0 mm 2 mps 754 mmHg 78%
    22:00 +9°C° 0 mm 2 mps 754 mmHg 82%
    23:00 +9°C° 0 mm 2 mps 754 mmHg 85%

    19 Agosto, Domingo

    Tiempo Temperatura Precipitaciones Viento Presión Humedad
    00:00 +8°C° 0 mm 2 mps 754 mmHg 87%
    01:00 +8°C° 0 mm 2 mps 755 mmHg 90%
    02:00 +7°C° 0 mm 2 mps 755 mmHg 91%
    03:00 +7°C° 0 mm 2 mps 755 mmHg 92%
    04:00 +7°C° 0 mm 2 mps 755 mmHg 93%
    05:00 +9°C° 0 mm 1 mps 755 mmHg 89%
    06:00 +10°C° 0 mm 1 mps 756 mmHg 85%
    07:00 +11°C° 0 mm 1 mps 756 mmHg 81%
    08:00 +13°C° 0 mm 2 mps 756 mmHg 73%
    09:00 +15°C° 0 mm 2 mps 755 mmHg 65%
    10:00 +17°C° 0 mm 2 mps 755 mmHg 57%
    11:00 +18°C° 0 mm 2 mps 755 mmHg 53%
    12:00 +19°C° 0 mm 2 mps 755 mmHg 50%
    13:00 +19°C° 0 mm 2 mps 754 mmHg 47%
    14:00 +20°C° 0 mm 2 mps 754 mmHg 47%
    15:00 +20°C° 0 mm 2 mps 754 mmHg 48%
    16:00 +20°C° 0 mm 2 mps 754 mmHg 48%
    17:00 +19°C° 0 mm 2 mps 754 mmHg 55%
    18:00 +18°C° 0 mm 1 mps 753 mmHg 61%
    19:00 +16°C° 0 mm 1 mps 753 mmHg 68%
    20:00 +14°C° 0 mm 1 mps 753 mmHg 71%
    21:00 +13°C° 0 mm 1 mps 753 mmHg 75%
    22:00 +12°C° 0 mm 1 mps 754 mmHg 78%
    23:00 +11°C° 0 mm 1 mps 754 mmHg 80%
    Mostrar más